#timestamp,LO_Frequency,Hit,StdDev 
1621775615.7,286046994.7,P
1621775635.5,286046994.3,P
1621775655.3,286046993.6,P
1621775675.2,286046992.2,Y
1621775695.0,286046998.3,P
1621775695.9,286046998.3,N
1621775715.7,286046998.5,N
1621775735.6,286046998.1,N
1621775755.4,286047000.7,N
1621775775.3,286046998.1,N
1621775795.1,286046998.9,N
1621775796.0,286046998.9,N
1621775815.8,286047000.8,N
1621775835.7,286046998.6,N
1621775855.5,286047000.3,N
1621775875.3,286047001.0,N
1621775895.2,286046998.7,N
1621775915.0,286046999.1,N
1621775915.9,286046999.1,N
1621775935.8,286046997.0,N
1621775955.6,286046999.4,N
1621775975.4,286046999.4,N
1621775995.3,286046999.4,N
1621776015.1,286046998.2,N
1621776035.8,286046999.1,N
1621776055.7,286046999.3,N
1621776075.5,286046999.2,N
1621776095.4,286046997.2,N
1621776115.2,286046998.8,N
1621776135.0,286046998.2,N
1621776135.9,286046998.2,N
1621776155.8,286046999.6,N
1621776175.6,286046996.5,N
1621776195.4,286046997.1,N
1621776215.3,286046997.1,N
1621776235.1,286046997.6,N
1621776255.9,286046997.7,N
1621776275.7,286046995.2,Y
1621776295.5,286046997.4,P
1621776315.4,286046994.9,P
1621776335.2,286046997.4,N
1621776355.0,286046997.1,N
1621776356.0,286046997.1,N
1621776375.8,286046997.5,N
1621776395.6,286046997.8,N
1621776415.5,286046995.2,Y
1621776435.3,286046998.8,P
1621776455.1,286047001.2,N
1621776475.9,286046998.7,N
1621776495.7,286046998.6,N
1621776515.6,286046998.7,N
1621776535.4,286046998.2,N
1621776555.2,286046998.4,N
1621776575.1,286047000.8,N
1621776576.0,286047000.8,N
1621776595.8,286046999.8,N
1621776615.6,286046998.1,N
1621776635.5,286046999.0,N
1621776655.3,286046996.5,Y
1621776675.2,286046999.5,P
1621776695.9,286046999.1,P
1621776715.7,286046998.5,P
1621776735.6,286046998.6,Y
1621776755.4,286047000.4,P
1621776775.2,286047000.5,N
1621776795.1,286047000.4,N
1621776796.0,286047000.4,N
1621776815.8,286047000.3,N
1621776835.7,286047000.6,N
1621776855.5,286047000.4,N
1621776875.3,286046998.2,Y
1621776895.2,286047001.1,P
1621776915.0,286047001.0,N
1621776915.9,286047001.0,N
1621776935.8,286046998.6,Y
1621776955.6,286046996.5,P
1621776975.4,286046999.4,N
1621776995.3,286046999.4,N
1621777015.1,286046998.8,N
1621777035.8,286046998.4,N
1621777055.7,286046998.3,N
1621777075.5,286046998.6,N
1621777095.4,286046999.0,N
1621777115.2,286046999.0,N
1621777135.0,286046999.0,N
1621777135.9,286046999.0,N
1621777155.8,286046998.8,N
1621777175.6,286046999.2,N
1621777195.4,286046996.9,Y
1621777215.3,286046998.7,P
1621777235.1,286046998.9,P
1621777255.9,286046999.2,P
1621777275.7,286046998.9,Y
1621777295.5,286046999.9,P
1621777315.4,286047000.7,N
1621777335.2,286047000.1,N
1621777355.0,286047000.1,N
1621777355.9,286047000.1,N
1621777375.8,286047002.1,Y
1621777395.6,286047002.7,P
1621777415.5,286047000.1,N
1621777435.3,286047002.4,N
1621777455.1,286047001.6,N
1621777475.9,286047001.3,N
1621777495.7,286047003.3,Y
1621777515.6,286047004.2,P
1621777535.4,286047004.0,N
1621777555.2,286047004.2,P
1621777575.1,286047001.8,N
1621777576.0,286047001.8,N
1621777595.8,286047003.6,N
1621777615.6,286047003.0,N
1621777635.5,286047005.1,Y
1621777655.3,286047004.1,P
1621777675.2,286047001.3,N
1621777695.9,286047003.3,N
1621777715.7,286047005.2,Y
1621777735.6,286047004.2,P
1621777755.4,286047005.6,P
1621777775.2,286047005.4,P
1621777795.1,286047005.0,Y
1621777796.0,286047005.0,P
1621777815.8,286047002.4,P
1621777835.7,286047003.2,N
1621777855.5,286047003.6,Y
1621777875.3,286047000.3,P
1621777895.2,286047001.1,N
1621777915.0,286047000.6,N
1621777915.9,286047000.6,N
1621777935.8,286047000.2,N
1621777955.6,286047001.4,N
1621777975.4,286047003.9,Y
1621777995.3,286047001.8,P
1621778015.1,286047003.9,P
1621778035.8,286047003.7,P
1621778055.7,286047004.9,Y
1621778075.5,286047003.5,P
1621778095.4,286047006.0,P
1621778115.2,286047005.4,P
1621778135.0,286047005.1,Y
1621778135.9,286047005.1,P
1621778155.8,286047000.3,N
1621778175.6,286047001.8,N
1621778195.5,286047001.4,N
1621778215.3,286047003.1,N
1621778235.1,286047004.6,N
1621778255.9,286047007.9,Y
1621778275.7,286047006.8,P
1621778295.5,286047006.7,P
1621778315.4,286047009.0,P
1621778335